| time (UTC) | temp C | wind direction | speed KPH | gust KPH | rain 1hr cm | rain 24hr cm | rain mn cm | humidity % | barometer mb |
| 20260507155004 | 12 | 195 | 8.0 | 12.9 | 0.00 | 0.00 | 0.00 | 64 | 1016.9 |
| 20260507154005 | 12 | 203 | 3.2 | 8.0 | 0.00 | 0.00 | 0.00 | 65 | 1016.9 |
| 20260507153004 | 12 | 324 | 1.6 | 9.7 | 0.00 | 0.00 | 0.00 | 66 | 1016.6 |
| 20260507152004 | 12 | 256 | 3.2 | 9.7 | 0.00 | 0.00 | 0.00 | 66 | 1016.6 |
| 20260507143004 | 14 | 166 | 1.6 | 9.7 | 0.00 | 0.00 | 0.00 | 60 | 1016.6 |
| 20260507142004 | 14 | 214 | 3.2 | 4.8 | 0.00 | 0.00 | 0.00 | 58 | 1016.6 |
| 20260507141004 | 13 | 335 | 0.0 | 4.8 | 0.00 | 0.00 | 0.00 | 62 | 1016.6 |
| 20260507140005 | 13 | 357 | 1.6 | 4.8 | 0.00 | 0.00 | 0.00 | 58 | 1016.6 |
| 20260507135004 | 14 | 320 | 1.6 | 14.5 | 0.00 | 0.00 | 0.00 | 57 | 1016.6 |
| 20260507134004 | 13 | 6 | 6.4 | 14.5 | 0.00 | 0.00 | 0.00 | 59 | 1016.6 |
| 20260507133005 | 15 | 358 | 4.8 | 16.1 | 0.00 | 0.00 | 0.00 | 56 | 1016.6 |
| 20260507132004 | 13 | 13 | 3.2 | 14.5 | 0.00 | 0.00 | 0.00 | 59 | 1016.6 |
| 20260507125004 | 14 | 127 | 3.2 | 9.7 | 0.00 | 0.00 | 0.00 | 64 | 1016.3 |
| 20260507123004 | 15 | 354 | 1.6 | 8.0 | 0.00 | 0.00 | 0.00 | 59 | 1016.3 |
| 20260507121004 | 13 | 349 | 3.2 | 8.0 | 0.00 | 0.00 | 0.00 | 66 | 1016.6 |
| 20260507120005 | 13 | 238 | 4.8 | 9.7 | 0.00 | 0.00 | 0.00 | 66 | 1016.3 |
| 20260507115004 | 13 | 205 | 3.2 | 14.5 | 0.00 | 0.00 | 0.00 | 64 | 1016.3 |
| 20260507113004 | 13 | 201 | 4.8 | 11.3 | 0.00 | 0.00 | 0.00 | 62 | 1016.6 |
| 20260507111004 | 13 | 226 | 16.1 | 22.5 | 0.00 | 0.00 | 0.00 | 62 | 1016.6 |
| 20260507110005 | 15 | 194 | 11.3 | 14.5 | 0.00 | 0.00 | 0.00 | 62 | 1016.6 |
| 20260507105004 | 13 | 327 | 3.2 | 8.0 | 0.00 | 0.00 | 0.00 | 62 | 1016.6 |
| 20260507103004 | 13 | 234 | 4.8 | 12.9 | 0.00 | 0.00 | 0.00 | 67 | 1016.6 |
| 20260507101004 | 11 | 334 | 3.2 | 8.0 | 0.00 | 0.00 | 0.00 | 71 | 1016.6 |
| 20260507100005 | 12 | 161 | 4.8 | 12.9 | 0.00 | 0.00 | 0.00 | 68 | 1016.7 |
| 20260507092004 | 13 | 177 | 8.0 | 12.9 | 0.00 | 0.00 | 0.00 | 67 | 1016.3 |
| 20260507091004 | 12 | 334 | 3.2 | 9.7 | 0.00 | 0.00 | 0.00 | 67 | 1016.3 |
| 20260507090005 | 13 | 183 | 4.8 | 9.7 | 0.00 | 0.00 | 0.00 | 68 | 1016.3 |
| 20260507085004 | 12 | 211 | 8.0 | 14.5 | 0.00 | 0.00 | 0.00 | 73 | 1016.3 |
| 20260507082004 | 11 | 7 | 3.2 | 8.0 | 0.00 | 0.00 | 0.00 | 76 | 1015.9 |
| 20260507080005 | 10 | 355 | 3.2 | 4.8 | 0.00 | 0.00 | 0.00 | 77 | 1015.6 |
| 20260507075004 | 10 | 174 | 3.2 | 8.0 | 0.00 | 0.00 | 0.00 | 80 | 1015.6 |
| 20260507074004 | 11 | 294 | 3.2 | 12.9 | 0.00 | 0.00 | 0.00 | 79 | 1015.6 |
| 20260507073004 | 10 | 168 | 11.3 | 14.5 | 0.00 | 0.00 | 0.00 | 80 | 1015.6 |
| 20260507072004 | 10 | 355 | 1.6 | 9.7 | 0.00 | 0.00 | 0.00 | 82 | 1015.6 |
| 20260507071004 | 9 | 184 | 3.2 | 12.9 | 0.00 | 0.00 | 0.00 | 84 | 1015.6 |
| 20260507070009 | 9 | 193 | 9.7 | 12.9 | 0.00 | 0.00 | 0.00 | 85 | 1015.6 |
| 20260507063008 | 8 | 234 | 3.2 | 9.7 | 0.00 | 0.00 | 0.00 | 87 | 1015.6 |
| 20260507061004 | 7 | 204 | 4.8 | 9.7 | 0.00 | 0.00 | 0.00 | 90 | 1015.6 |
| 20260507060004 | 7 | 207 | 0.0 | 4.8 | 0.00 | 0.00 | 0.00 | 91 | 1015.6 |
| 20260507053005 | 7 | 294 | 1.6 | 9.7 | 0.00 | 0.00 | 0.00 | 92 | 1015.0 |
| 20260507050005 | 6 | 332 | 3.2 | 9.7 | 0.00 | 0.00 | 0.00 | 93 | 1014.6 |
| 20260507044004 | 6 | 306 | 4.8 | 8.0 | 0.00 | 0.00 | 0.00 | 94 | 1014.6 |
| 20260507043004 | 6 | 307 | 3.2 | 3.2 | 0.00 | 0.00 | 0.00 | 94 | 1014.6 |
| 20260507041004 | 6 | 334 | 3.2 | 9.7 | 0.00 | 0.00 | 0.00 | 94 | 1014.2 |
| 20260507034004 | 6 | 233 | 3.2 | 9.7 | 0.00 | 0.03 | 0.00 | 96 | 1013.9 |
| 20260507033004 | 6 | 275 | 3.2 | 9.7 | 0.00 | 0.03 | 0.00 | 96 | 1013.9 |
| 20260507025004 | 7 | 331 | 1.6 | 4.8 | 0.00 | 0.03 | 0.00 | 95 | 1013.5 |
| 20260507024004 | 7 | 271 | 3.2 | 4.8 | 0.00 | 0.03 | 0.00 | 95 | 1013.9 |
| 20260507023004 | 7 | 242 | 1.6 | 8.0 | 0.00 | 0.03 | 0.00 | 95 | 1013.5 |
| 20260507022004 | 7 | 188 | 1.6 | 9.7 | 0.00 | 0.03 | 0.00 | 95 | 1013.5 |
| 20260507014004 | 7 | 299 | 3.2 | 8.0 | 0.00 | 0.03 | 0.00 | 95 | 1013.5 |
| 20260507013004 | 7 | 216 | 3.2 | 4.8 | 0.00 | 0.03 | 0.00 | 95 | 1013.5 |
| 20260507012004 | 8 | 304 | 1.6 | 4.8 | 0.00 | 0.03 | 0.00 | 95 | 1013.5 |
| 20260507011004 | 8 | 192 | 3.2 | 8.0 | 0.00 | 0.03 | 0.00 | 95 | 1013.2 |
| 20260507010005 | 8 | 332 | 3.2 | 8.0 | 0.00 | 0.03 | 0.00 | 95 | 1013.2 |
| 20260507004004 | 8 | 345 | 0.0 | 4.8 | 0.00 | 0.03 | 0.00 | 95 | 1013.2 |
| 20260507001004 | 8 | 320 | 1.6 | 4.8 | 0.00 | 0.03 | 0.00 | 95 | 1013.2 |
| 20260507000004 | 8 | 205 | 3.2 | 8.0 | 0.00 | 0.03 | 0.00 | 95 | 1013.2 |
| 20260506234004 | 8 | 258 | 4.8 | 12.9 | 0.00 | 0.03 | 0.03 | 95 | 1013.2 |
| 20260506233004 | 8 | 344 | 3.2 | 9.7 | 0.00 | 0.03 | 0.03 | 95 | 1013.2 |
| 20260506232004 | 8 | 209 | 3.2 | 12.9 | 0.00 | 0.03 | 0.03 | 95 | 1013.2 |
| 20260506230004 | 8 | 201 | 4.8 | 9.7 | 0.00 | 0.03 | 0.03 | 94 | 1012.9 |
| 20260506225004 | 9 | 212 | 4.8 | 12.9 | 0.00 | 0.03 | 0.03 | 94 | 1012.9 |
| 20260506224004 | 9 | 335 | 3.2 | 8.0 | 0.00 | 0.03 | 0.03 | 94 | 1012.9 |
| 20260506222004 | 9 | 222 | 3.2 | 8.0 | 0.00 | 0.03 | 0.03 | 94 | 1012.9 |
| 20260506220004 | 9 | 181 | 3.2 | 11.3 | 0.00 | 0.03 | 0.03 | 95 | 1012.5 |
| 20260506215006 | 9 | 290 | 4.8 | 12.9 | 0.00 | 0.03 | 0.03 | 94 | 1012.2 |
| 20260506214004 | 9 | 227 | 3.2 | 11.3 | 0.00 | 0.03 | 0.03 | 93 | 1012.2 |
| 20260506212043 | 9 | 315 | 1.6 | 1.6 | 0.00 | 0.03 | 0.03 | 90 | 1011.9 |
| 20260506211004 | 9 | 322 | 0.0 | 1.6 | 0.00 | 0.03 | 0.03 | 90 | 1011.5 |
| 20260506210004 | 9 | 345 | 0.0 | 4.8 | 0.00 | 0.03 | 0.03 | 91 | 1011.5 |
| 20260506205004 | 9 | 236 | 3.2 | 4.8 | 0.00 | 0.05 | 0.03 | 92 | 1011.9 |
| 20260506203004 | 10 | 7 | 1.6 | 3.2 | 0.00 | 0.05 | 0.03 | 91 | 1011.2 |
| 20260506202004 | 10 | 329 | 1.6 | 3.2 | 0.00 | 0.05 | 0.03 | 89 | 1011.2 |
| 20260506195004 | 11 | 36 | 1.6 | 8.0 | 0.00 | 0.05 | 0.03 | 82 | 1010.8 |
| 20260506194004 | 11 | 143 | 4.8 | 8.0 | 0.00 | 0.05 | 0.03 | 83 | 1010.8 |
| 20260506193004 | 11 | 99 | 3.2 | 11.3 | 0.00 | 0.05 | 0.03 | 82 | 1010.7 |
| 20260506192004 | 12 | 194 | 1.6 | 8.0 | 0.00 | 0.05 | 0.03 | 80 | 1010.5 |
| 20260506190005 | 15 | 328 | 1.6 | 4.8 | 0.00 | 0.05 | 0.03 | 58 | 1009.8 |
| 20260506185004 | 15 | 333 | 4.8 | 11.3 | 0.00 | 0.05 | 0.03 | 57 | 1009.5 |
| 20260506184004 | 15 | 191 | 8.0 | 12.9 | 0.00 | 0.05 | 0.03 | 55 | 1009.5 |
| 20260506183005 | 15 | 262 | 8.0 | 12.9 | 0.00 | 0.05 | 0.03 | 55 | 1009.1 |
| 20260506182004 | 15 | 201 | 4.8 | 9.7 | 0.00 | 0.05 | 0.03 | 56 | 1008.5 |
| 20260506175004 | 16 | 275 | 4.8 | 8.0 | 0.00 | 0.05 | 0.03 | 52 | 1008.8 |
| 20260506171004 | 17 | 209 | 4.8 | 9.7 | 0.00 | 0.05 | 0.03 | 49 | 1008.5 |
| 20260506170004 | 17 | 210 | 8.0 | 9.7 | 0.00 | 0.05 | 0.03 | 48 | 1008.5 |
| 20260506164004 | 17 | 238 | 8.0 | 16.1 | 0.00 | 0.05 | 0.03 | 47 | 1008.5 |
| 20260506163004 | 18 | 204 | 11.3 | 16.1 | 0.00 | 0.05 | 0.03 | 48 | 1008.8 |
| 20260506162004 | 18 | 221 | 4.8 | 4.8 | 0.00 | 0.05 | 0.03 | 50 | 1008.8 |
| 20260506161004 | 18 | 208 | 3.2 | 9.7 | 0.00 | 0.05 | 0.03 | 50 | 1008.8 |
| 20260506160005 | 18 | 233 | 4.8 | 8.0 | 0.00 | 0.05 | 0.03 | 48 | 1008.8 |